Race Results for
Bicycle Sport Shop Pace Bend Race
Spicewood, TX
(Event Information)
View By:
Cross Country on 03/16/2014

Note: Ranking points are NOT upgrade points. An explanation of ranking points can be found here.


Men - SS Open

 Place Points NameCity, StateTime USAC #BibTeam
1448.99 Alex Morgan   Amarillo02:09:39.000 25033  50 Hill's Sport Shop
2459.84 Matthew Barkley   Cedar Park, TX02:17:47.000 303278  74 Texas Cycle Werks
3470.69 Jeff Shoemake   Houston02:18:17.000 111415  54 WayPastFast
4481.54 Eric Jordan   New Braunfels, TX02:20:03.000 18277  56 Mellow Johnny's Cycling
5492.39 Matthew Sappington   Round Rock, TX02:24:06.000 358266  66 The Peddler Bike Shop
6 Jason Smith   02:24:07.000  65 
7514.09 Ben Kettle   Austin02:24:30.000 397747  53 The Peddler Bike Shop
8524.94 Gerad Dambrosia   Round Rock, TX02:26:25.000 378991  34 OMW Racing
9535.79 Winfield Haggard Jr   Houston, TX02:28:31.000 308865  52 Tile Roofs of Texas/Bike Barn
10546.64 Vincent Colvin   Austin, TX02:28:40.000 367508  55 Chumba Racing / Team Crank House Cycles
11557.49 Johnny Petrosky   Houston, TX02:29:13.000 214208  89 Tile Roofs of Texas/Bike Barn
12568.34 Jerod Rollins   Austin, TX02:31:23.000 396675  51 TEAM CRANK HOUSE CYCLES
13579.19 Amos Schwartzfarb   Austin, TX02:41:26.000 158168  48 Bully Hill Racing/Mellow Johnnys
14590.04 William Lamb   Crawford, TX03:27:00.000 364869  49 Bicycles Outback p/b Jubilee Mitsubishi
DNS William Moritz   Houston, TXDNS 161036  154 Sugar Cycles

Men - SS 2/3 - 0-99

 Place Points NameCity, StateTime USAC #BibTeam
1521.24 Brian Hanley   Austin01:36:38.000 387675  383 
2526.97 Brandon Lucas   Houston, TX01:37:28.000 243136  332 Mafia Racing
3532.70 Rob Spooner   Cedar Park, TX01:39:25.000 325498  343 Bicycle Sport Shop Mountain Bike Club
4538.43 Frank Musil (1 - Cat3)   Houston, TX01:40:33.000 428940  336 
5544.16 Jim Davis   Conroe, TX01:45:29.000 185473  362 Team Bike Lane
6549.89 Kelly Heath   Austin, TX01:49:01.000 303304  364 TEAM CRANK HOUSE CYCLES
7555.62 Ken Parmerter   The Hills, TX01:50:00.000 396683  392 L.A.M.E.
8 Chris Mosch   01:50:45.000  373 
9567.08 Antonio Garza   Austin, TX01:52:52.000 272333  259 Bicycle Sport Shop Club
10572.81 Ryan Albert   Pflugerville, TX01:55:25.000 56369  388 The Peddler Bike Shop
11578.54 Chris McClung   Bruceville, TX01:56:32.000 388508  355 Bicycles Outback Racing
12 Lance Hyde   01:59:43.000  395 OMW Racing
13590.00 Tom Richardson   Cedar Park, TX02:01:54.000 424403  396 Bicycle Sport Shop
DNS Gary Rogers   DNS  297 Team Bike Lane

Men - Pro/Cat 1

 Place Points NameCity, StateTime USAC #BibTeam
1341.49 Scott Henry   Austin, TX02:01:47.000 254  88 Cycle Progression
2356.53 Nathan Winkelmann   Huntsville, TX02:02:01.000 188575  33 Bike Lane / WTF
3371.57 JT Cody   San Antonio, TX02:02:27.000 7243  82 Bicycle Heaven/PVA
4386.61 Scott Minard   Houston, TX02:05:11.000 92947  27 Bayou City Racing
5401.65 Will Black   Austin, TX02:07:54.000 58540  41 Mellow Johnny's Bike Shop
6416.69 Sol Frost   Austin, TX02:09:31.000 165768  79 Austinbikes/Revenant
7431.73 Rob Sandusky   Frisco, TX02:09:32.000 291129  57 Matrix/RBM
8446.77 Adam Finck   San Marcos, TX02:11:00.000 289993  36 Team Velocity Bike Shop
9461.81 Jorge Munoz   Laredo, TX02:11:03.000 255731  42 Adventures Cannondale/Sho-Air
10476.85 Craig Kunz   Austin, TX02:12:45.000 124975  30 Honey Stinger
11491.89 Brian Barrow   San Marcos, TX02:13:57.000 225274  73 The Peddler Bike Shop
12506.93 Luke Fleming   Damon, TX02:14:32.000 264100  32 Sugar Cycles Factory Team
13521.97 Dwayne Otto   Muenster, TX02:16:02.000 26937  59 Cadence Cyclery
14537.01 Ethan Storm   Arlington, TX02:24:16.000 341794  38 Dallas Bike Works/Martin High School
15552.05 L J Miller   Austin, TX02:32:23.000 158817  71 Turner Bikes
DNF Joshua de Boisblanc   Austin, TXDNF 316522  47 Team Cycle Progression
DNF Noah Wright   Austinaustin, TXDNF 337912  77 Team Robot Smash
DNF Brady Stewart   Spring Branch, TXDNF 345142  64 Chain Link Racing
DNF Jonny Sundt   Austin, TXDNF 34666  78 Giant South

Men - Cat 1 - 15-18

 Place Points NameCity, StateTime USAC #BibTeam
1462.40 Will Johnson   Austin, TX01:32:00.000 371000  148 Team Cycle Progression
2493.80 Gilbert Johnson   Austin, TX01:34:01.000 370991  147 Boneshaker Project
3525.20 Garrett Rolfe   Haughton, LA01:34:03.000 362004  123 Team LaS'port
4556.60 James Procter   Sherman Tx01:37:04.000 368688  72 Southern Elite/Sun & Ski Sports/PARD
DNF Jonah Boatman   Austin, TXDNF 308456  136 Southern Elite/Sun & Ski Sports/PARD

Men - Cat 1 - 19-29

 Place Points NameCity, StateTime USAC #BibTeam
1459.34 Doug Todd   Canyon, TX02:10:58.000 276306  83 West Texas A&M
2484.80 Alex Garza   San Marcos, TX02:16:58.000 299037  67 
3510.26 Nicholas Elkins   Austin, TX02:20:20.000 394226  35 Team Cycle Progression
4535.72 Hayden Gore   Houston, TX02:22:15.000 300480  63 Team Robot Smash
5561.18 Brandon Barber   Houston, TX02:22:34.000 284774  43 Mafia Racing
6586.64 Jason Baker   Austin, TX02:28:38.000 352488  37 Beat the Clock Cycling
DNF Andrew Cork   Waco, TXDNF 301724  44 Outdoor Waco
DNF Thomas Sebring   Round Rock, TXDNF 349588  31 512 Racing p/b AJ's Cyclery
DNF Christoph Schuldt   DNF  80 LE Bike Force/Focus Rapiro Racing

Men - Cat 1 - 30-39

 Place Points NameCity, StateTime USAC #BibTeam
1385.21 Dale Dawson   Arlington, TX02:07:27.000 377743  58 Team PACC
2397.99 Casey Crosby   Austin, TX02:07:59.000 238357  26 
3410.77 Daniel Appelo   Albuquerque, NM02:13:06.000 207338  40 Scalo Veloce
4423.55 Adam Butler   Austin, TX02:13:27.000 360105  29 Orange Seal/Peddler Bike Shop
5436.33 Paul Loesch   New Braunfels, TX02:14:43.000 394847  69 Chain Link Racing
6449.11 Thomas Fad   Austin, TX02:15:29.000 304325  86 Jack and Adam's Racing
7461.89 Brian Jett   Austin, TX02:16:19.000 326286  87 The Peddler Bike Shop
8474.67 Aaron Sorrentino   Cedar Park, TX02:17:23.000 391108  60 Mafia Racing South
9487.45 Mike Aguayo   Spring, TX02:18:07.000 282793  39 Team Bike Lane
10500.23 Paul Wegman   Austin, TX02:20:01.000 393030  85 Mafia Racing
11513.01 Robert Johnston   New Braunfels, TX02:20:02.000 396233  70 Chain Link Racing
12525.79 Jason Whitson   Austin, TX02:22:42.000 350662  81 Jack & Adam's Racing Team
13538.57 Armando Espinosa Jr.   Clear Lake02:23:17.000 369239  61 Bike Barn
14551.35 Dominic Adl   Houston, TX02:25:24.000 277431  28 Bike Barn
15564.13 Forrest Streeter   Austin, TX02:25:25.000 337426  84 Crankhouse Cycle Racing
16576.91 Chris Olson   Houston, TX02:27:56.000 26709  68 
DNS Tim Rawlins   Denton, TXDNS 308762  46 Bicycles Plus
DNF Jerry Bueno   Austin, TXDNF 161001  45 787 Racing

Men - Cat 1 - 40-49

 Place Points NameCity, StateTime USAC #BibTeam
1327.91 Gareth Jones   Houston, TX01:23:40.000 366136  101 Redwood Singletrack
2339.12 Will Ross   Austin, TX01:25:38.000 40280  183 Boneshakers
3350.33 Jonathan Pattie   Austin, TX01:25:39.000 97614  119 BULLY HILL RACING / Mellow Johnny's
4361.54 Mike Panozzo   Austin, TX01:25:40.000 333442  131 787 Racing
5372.75 Aaron Uzzell   Lubbock, TX01:26:09.000 154040  132 Velocity/Black & White
6383.96 Paul Fafard   Austin, TX01:26:11.000 258845  190 Cycle Progression Austin Texas
7395.17 Jason Krempin   Austin, TX01:27:04.000 270946  110 Monkey Wrench Racing
8406.38 Mick McDonald   Houston, TX01:27:34.000 23403  111 cookford/bayareacyclery
9417.59 Mark Mihailoff   Austin01:27:35.000 385885  181 CrankHouse Cycles
10428.80 John Madden   Houston, TX01:27:57.000 308953  151 Sugar Cycles / Wholesome Sweeteners
11440.01 Dave Esper   Cedar Park, TX01:28:10.000 153692  103 SDR /chasco/ mac's cycle werks
12451.22 Dustin Barton   Blanco, TX01:29:09.000 85066  107 
13462.43 Rob Sisk   Houston, TX01:30:31.000 165285  137 Bikesport
14473.64 Glenn North   Dripping Springs, TX01:31:41.000 365975  177 Team Crank House Cycles
15484.85 Kyle Poole   Austin, TX01:31:50.000 188566  113 Velorangutan
16496.06 Jason Qunell   Austin, TX01:33:48.000 301057  122 787 Racing
17507.27 Jim Storey   Spring, TX01:34:38.000 423610  121 Bike Barn
18518.48 Brian Freeze   Houston, TX01:35:03.000 12361  140 Bicycle World of Houston
19529.69 James Webb   Kyle, TX01:35:23.000 199834  105 Mafia Racing South GIANT/PBR/ORANGE SEAL
20540.90 Dustin Payne   Austin, TX01:35:24.000 248131  106 Ozone Bikes
21552.11 Richard Mills   Houston, TX01:39:07.000 365815  153 DIRT racing
22563.32 Carlos Uranga   Irving, TX01:50:06.000 325182  62 PACC
DNS Jayson Webb   Fort Worth, TXDNS 37464  112 Colonel's/Sho-Air
DNS Bill Zeitz   Austin, TXDNS 367338  108 Bully Hill Racing/
DNS John Lakoski   Austin, TXDNS 158172  118 Mellow Johnny's/Bully Hill
DNF Brett Faulk   Houston, TXDNF 11325  120 Bayou City Racing
DNF AJ Camp   Cedar Park, TXDNF 185287  175 The Peddler Bike Shop
DNF William Mabus   Dallas, TXDNF 42117  114 Orbea-Mavic
DNF P.J. Rabice   Austin, TXDNF 197598  161 Raod ID
DNF Heath Wade   Flower Mound, TXDNF 385202  109 Team PACC

Men - Cat 1 - 50-59

 Place Points NameCity, StateTime USAC #BibTeam
1387.47 Chris Carlson   Plano, TX01:27:47.000 6135  196 RBM/Matrix
2397.60 Brian Zettner   San Antonio, TX01:28:06.000 186298  104 Bike World Racing
3407.73 Don Losawyer   Arlington, TX01:28:27.000 275430  139 Dallas Bike Works
4417.86 Larry Price   Mckinney, TX01:30:40.000 28693  172 McKinney Velo
5427.99 Ric Tinney   Houston, TX01:31:02.000 138388  185 Team Bike Lane
6438.12 Mike Bohn   Celina, TX01:31:25.000 212895  170 PACC
7448.25 Joey Machado   Austin, TX01:31:50.000 91641  162 Bicycle Sport Shop
8458.38 Forist David Jr.   Converse, TX01:32:05.000 219282  146 DAV
9468.51 Mark Johnson   Plano, TX01:33:11.000 365838  116 Team PACC
10478.64 Mark Landeck   Seabook, TX01:34:49.000 188556  167 Texas Pro Health Racing
11488.77 Robert Coreale   Houston, TX01:35:54.000 7789  173 Tile Roofs of Texas/Bike Barn
12498.90 John Worzel   Spring, TX01:36:14.000 325610  142 Southern Elite/Sun & Ski Sports/PARD
13509.03 Tony Sturdivant   San Angelo, TX01:39:05.000 269518  115 Concho Bike/Hanks Racing
14519.16 David Mackey   Magnolia, TX01:41:13.000 205028  178 Team Bike Lane
15529.29 Fred Willemsen   Round Rock, TX01:42:11.000 243606  157 Bicycle Sport Shop
16539.42 Roel Chapa   Arlington, TX01:42:12.000 291206  125 Bicycles Inc.
17549.55 Kent Griffin   San Marcos, TX01:42:37.000 59006  127 Velocity Bike Shop Racing
18559.68 Sergio Garcia   Waco, TX01:47:01.000 360973  195 Sqadra Di Servitori
19569.81 Tom Ketterhagen   Georgetown, TX01:47:23.000 334056  192 787 Racing
20579.94 Mike Kolat   Lake Jackson, TX02:06:01.000 88139  187 
21590.07 Scott Schaefer   Houston, TX02:16:19.000 126923  133 Southern Elite/Sun&Ski
DNF Adam Salladin   Kerrville, TXDNF 31116  129 Hill Country Bicycle Works

Men - Cat 1 - 60-99

 Place Points NameCity, StateTime USAC #BibTeam
1411.01 Dirk Martin   Mcallen, TX01:33:12.000 22655  163 TEAM MCALLEN
2435.33 Steve Minnerly   Frisco, TX01:33:48.000 114399  130 PACC
3459.65 Jack Hicks   Austin, TX01:35:16.000 16105  191 Team Cycle Progression
4483.97 Mark Hargis   Grapevine, TX01:53:41.000 140813  135 Bicycles Inc.
5508.29 John Howell   Austin, TX02:02:30.000 169633  188 Bicycle Sport Shop
6532.61 Frederic Schmid   Waco, TX02:05:40.000 109257  102 Bicycles Outback p/b Jubilee Mitsubishi
7556.93 Lewis Herridge   Gordonville, TX02:05:43.000 175630  176 Knoobies & Swick
8581.25 Rodney Killebrew   Austin, TX02:08:50.000 115518  184 Hill Country Bicycle Works

Men - Cat 2 - 15-18

 Place Points NameCity, StateTime USAC #BibTeam
1 Bradyn Lange   01:29:22.000  312 LT High School
2456.84 Colton Sacket   Troy, TX01:30:13.000 266357  321 Tri-City Bicycles
3462.52 Mauricio Garcia   Dallas, TX01:34:15.000 423862  370 PARK PLACE DEALERS/SUN &SKI/IMC
4468.20 Austin Wagner   Burleson, TX01:37:30.000 336530  357 Richardson Bike Mart/Matrix
5473.88 Ashton Dubroc   Sugar Land, TX01:38:04.000 344376  276 Team Bike Lane
6 Zachary Risher   01:39:24.000  254 
7485.24 Parker Given   Kerrville, TX01:39:25.000 293228  391 Hill Country Bicycle Works
8490.92 Zachary Yates   Rowlett, TX01:40:14.000 369871  268 RBM / Matrix / Sachse HS
9496.60 Chad k Bobbitt   Austin, TX01:45:10.000 327866  316 Retro Racing USA
10502.28 Thomas Madden   Houston, TX01:51:10.000 329158  302 Sugar Cycles / Wholesome Sweeteners
DNF Peter Drury   Flower Mound, TXDNF 426493  578 Bicycles Plus
DNF Harrison Worzel   Spring, TXDNF 349314  286 Southern Elite/Sun & Ski Sports/PARD

Men - Cat 2 - 19-29

 Place Points NameCity, StateTime USAC #BibTeam
1503.13 Jason Johnson   White Bear Lake, MN01:24:40.000 429693  371 Sho-Air
2509.34 Canyon Emmott   Spicewood, TX01:28:46.000 423657  273 Crank House Cycles
3515.55 Nick Picchetti   Austin, TX01:30:52.000 418503  285 The Peddler Bike Shop
4 Kane Currans   01:34:15.000  337 Bike World Racing
5527.97 Mason Guin   Austin, TX01:34:58.000 426072  292 Exhale Bikes
6534.18 Dewey Maneewat   San Antonio Tx01:36:48.000 423783  393 Bike World
7540.39 Justin Carver   Austin01:37:54.000 377048  256 Bike Barn
8546.60 Levi Knudson   Gig Harbor01:38:25.000 426311  296 Bikelane
9552.81 Kevin Fort   Austin, TX01:41:32.000 427794  252 
10559.02 Joseph Riggs   Houston01:42:15.000 372842  265 
11565.23 Brian Hare   Austin, TX01:47:25.000 305686  293 Team SpinCycle
12571.44 Trendon Huebner   Houston, TX01:48:51.000 311460  339 Team West End
13577.65 Michael Stivers   College Station, TX01:49:20.000 345076  363 Texas A&M Cycling
14583.86 Chad Hayes   Flowery Branch, GA02:04:49.000 289308  261 Prima Tappa Cycling p/b Mansfield Oil
15 Colin Owen   02:09:06.000  233 
DNF Joseph DeSantis   New Braunfels, TXDNF 410751  341 Chain Link Bicycle Shop
DNF Bill Quach   Houston, TXDNF 327834  397 Southern Elite

Men - Cat 2 - 30-34

 Place Points NameCity, StateTime USAC #BibTeam
1493.39 Neil Dobson   Houston, TX01:27:51.000 420253  299 West End Bikes
2499.83 Andy Frazier   Terrell, TX01:30:16.000 361805  287 Dallas Bike Works / Hooters
3506.27 Jose Martinez   Houston, TX01:36:26.000 342642  368 Sugar Cycles
4512.71 Travis Garrison   San Antonio, TX01:36:29.000 397539  358 Ride Away Bicycles
5519.15 James Kling   Grand Prairie, TX01:36:40.000 412646  374 Danny Shane
6 Edwin Gama   01:36:44.000  378 Bikesport
7 Craig Chedsey   01:38:01.000  346 Lonestar Gravity
8 James Mallia   01:41:46.000  279 
9544.91 Arnold Haffner   San Antonio, TX01:42:42.000 394128  382 BikeWorld Racing
10551.35 Jason Hicks   Austin, TX01:48:26.000 107949  398 
11557.79 Tony Barrera   Laredo01:48:27.000 393972  325 
12564.23 Jeremy Watkins   Austin, TX01:49:56.000 377796  348 Bicycle Sport Shop
13570.67 Carlo Molano   Laredo , TX01:54:51.000 310021  319 Level X
14 Alfredo Lopez   02:03:07.000  394 OMW Racing
15583.55 Vernon Sexton   Lubbock, TX02:16:18.000 165027  327 Indust
16589.99 Jason Horn   Katy, TX02:20:19.000 422225  266 
DNS Matthew Watson   Hewitt, TXDNS 394391  300 Bicycles Outback Racing
DNS Jonathan Pass   AustinDNS 380409  231 512 Racing p/b AJ's Cyclery
DNF J SIlva   DNF  354 PLEASE SEE REGISTRATION

Men - Cat 2 - 35-39

 Place Points NameCity, StateTime USAC #BibTeam
1482.58 Jason Schaller   Austin, TX01:26:17.000 392625  237 
2488.19 Richard Drew   Dallas01:27:06.000 422757  372 PACC
3493.80 Jed Rogers   Austin Tx01:29:05.000 271069  349 271069
4499.41 Toby Rider   Plano01:32:28.000 412338  271 Team PACC
5505.02 David Mikulecky   Midlothian, TX01:32:45.000 395537  375 
6510.63 Thad Williams   Austin, TX01:35:23.000 112170  290 Texas Cycle Werks
7516.24 Paul Burslem   Austin, TX01:36:36.000 348514  356 LAME
8521.85 Markus Beeby   Austin, TX01:36:37.000 311065  248 Team Chain Drop
9527.46 Douglass Rauls   Austin, TX01:37:31.000 310474  226 Team Chain Drop
10533.07 Joseph Laochaloenvanich   Austin, TX01:39:01.000 339446  246 Voodoo Racing
11 David Baker   01:40:19.000  333 Orange Seal/TX Cycle Works
12544.29 Ray Figurella   Austin, TX01:40:33.000 380176  235 Life Time Fitness
13549.90 Joe Siwinski   The Colony, TX01:48:07.000 412722  269 
14 Keith Barron   01:49:59.000  335 
15561.12 Marc Besinaiz   Smithville, TX01:52:57.000 311234  303 Bikeland
16566.73 Nelson Herrera   Houston, TX01:54:41.000 368825  353 WTF Racing
17572.34 Matt Anderson   Waco, TX01:55:23.000 159192  381 Jubilee
DNS Shawn Slack   AustinDNS 396568  253 Austinbikes/Revenant
DNF Chad Faucheux   Austin, TXDNF 424493  245 Team Crank House Cycles
DNF Alan Rodriguez   Houston, TXDNF 365553  352 Superior Haulers

Men - Cat 2 - 40-44

 Place Points NameCity, StateTime USAC #BibTeam
1471.16 John Cantu   San Antonio, TX01:31:52.000 256425  228 
2477.76 Michael Granata   Dallas, TX01:34:26.000 386285  278 Dallas Bike Works
3484.36 Clayton Perriraz   Conroe, TX01:35:21.000 342024  313 Racing Critters
4490.96 Michael Adams   Conroe, TX01:36:20.000 286993  301 Team Bike Lane
5497.56 Brad Harmon   Round Rock, TX01:36:22.000 307753  288 Orange Seal Cycling
6504.16 Troy Anderson   Dallas01:37:07.000 341138  384 PACC
7510.76 Mark Wiggans   Austin, TX01:38:30.000 38177  308 Austin Bikes/Revenant
8517.36 Travis Davies   Austin, TX01:38:50.000 402210  267 
9523.96 Cooper Sellers   Austin01:39:05.000 393892  234 
10530.56 Thomas Clements   Spring , TX01:40:31.000 292542  310 Southern Elite/Sun & Ski Sports/PARD
11537.16 Chad Bobbitt   Austin, TX01:40:32.000 217687  317 Retro Racing USA
12543.76 John Banning   Austin, TX01:41:20.000 396403  401 Mellow Johnnys
13550.36 Brian Kay   Colorado Springs, CO01:42:31.000 54749  329 Texas Cycle Werks
14556.96 Gabriel Ayala   Canyon Lake, TX01:47:05.000 422391  318 Chail Link
15563.56 Preston Ridley   Plano, TX01:47:06.000 423898  387 
16570.16 Dennis Ellington   Jonestown, TX01:48:15.000 143427  386 
17576.76 Colin Hill   `01:50:02.000 283831  270 Bike Barn Texas
18 Eddie Villarreal   01:55:36.000  340 Laredo PB
19589.96 Brady Gibson   Waco02:07:25.000 105026  304 
DNS Jurgen Gruber   Austin, TXDNS 406116  243 Voodoo Racing
DNS Jeff Grant   HoustonDNS 365814  307 Shama Cycles
DNS Chris Weckwerth   BrownwoodDNS 396548  230 
DNF Stewart Campbell   Richardson, TXDNF 96880  305 
DNF Ray Monroy   Austin, TXDNF 175641  342 AustinBikes

Men - Cat 2 - 45-49

 Place Points NameCity, StateTime USAC #BibTeam
1507.28 David Larrabee   Converse, TX01:30:27.000 367860  402 Action Bikes
2510.13 Jacob Richardson   Austin, TX01:30:43.000 42120  295 University Cyclery / Blind Side Racing
3512.98 Gary Hanna   Lockhart01:31:26.000 420176  251 Mafia Racing
4515.83 Kirby Walls   Austin, TX01:35:37.000 394272  244 Team Bike Cycles
5518.68 Kevin Mays   Kerrville, TX01:36:57.000 143426  320 Hill Country Bicycle Works
6521.53 Gary Crowell   Austin, TX01:37:24.000 8244  294 Crank House Cycles
7524.38 Steven Courtney   Austin, TX01:37:26.000 392029  250 Orange Seal Cycling
8527.23 Brian Grubbs   Hutto, TX01:37:44.000 350038  229 Flying Pigs / Bicycle Sport Shop
9530.08 Mike Hamsa   Cedar Park, TX01:37:49.000 14885  380 
10532.93 John Eddington   Plano Tx01:38:43.000 382527  242 Team PACC
11535.78 David O'Bryan   Leander Tx.01:38:51.000 393934  247 
12538.63 Terry Riley   Dallas, TX01:40:08.000 420699  323 
13 Doug Lange   01:41:30.000  311 Team Crank House Cycles
14544.33 Gary Liardon   Clifton01:41:58.000 84456  241 Team Crank House Cycles
15547.18 Francisco Cano   Sugar Land, TX01:42:00.000 366415  239 Dirt Racing/Bike Route
16550.03 Frank Karbarz   Houston, TX01:43:36.000 70407  377 GCCA
17 Harry Wallace   01:43:58.000  390 
18555.73 Paul Pinholster   Austin , TX01:44:58.000 317066  240 Team Crank House Cycles
19558.58 Ubaldo Castillo   Austin, TX01:46:09.000 388450  376 Sun & Ski
20561.43 Jeffrey Jordan   San Antonio Tx01:46:12.000 305914  351 Ride Away Bicycles
21564.28 Humberto Villanueva   Plano, TX01:46:13.000 393573  399 
22567.13 Aaron Foreman   Austin, TX01:47:57.000 12020  345 Austin Bikes
23569.98 Joseph Gabriel   Austin Tx01:48:19.000 345882  315 Bicycle World of Houston / HTFU
24 Ben Adair   01:49:13.000  260 Team IPA Racing
25575.68 Bryan Christner   Austin, TX01:53:21.000 420014  258 
26578.53 Jack Crawford   Delaware, OH01:59:54.000 8093  227 IPA Racing
27581.38 Dan Hickman   Austin, TX02:12:39.000 154632  282 OMW Racing
DNS Rick Anderson   Austin, TXDNS 184852  236 Bicycle Sport Shop

Men - Cat 2 - 50-99

 Place Points NameCity, StateTime USAC #BibTeam
1 Bret Roberts   01:33:58.000  379 
2 Sam LaBarbern   01:34:05.000  330 
3509.11 Randy Gibson   Plano, TX01:34:22.000 422142  283 Texas Mountain Bike Racing Association
4513.60 Phil Lewis   Georgetown, TX01:36:03.000 378497  257 
5518.09 Robert Schmalholz   Flower Mound, TX01:39:06.000 51144  280 Team PACC
6522.58 Neil Hammond   San Antonio, TX01:40:20.000 423988  350 
7 Michael Smith   01:40:27.000  365 Team Crank House Cycles
8531.56 Robert Willcox   Austin, TX01:40:32.000 171001  326 Pikes Peak Velo Racing
9536.05 Bob Sparacino   Sugar Land, TX01:44:54.000 396754  361 Bike Lane
10540.54 John Dowling   Seabrook, TX01:45:53.000 318478  281 Dirt Racing
11545.03 Don Schwieters   Austin, TX01:45:54.000 371432  284 OMW
12549.52 Ralph Voss   Canyon Lake, TX01:46:43.000 186996  306 Guadalupe River Cycling & Fitness
13554.01 Lee Rusk   Austin, TX01:48:05.000 113100  262 GS Tenzing
14558.50 Chris Robin   Houston, TX01:48:06.000 339330  264 Team Bike Barn Texas
15562.99 Michael Wisbauer   Round Rock, TX01:50:20.000 419256  255 TCW
16567.48 Martin Rojas   Cedar Park, TX01:51:00.000 197399  275 
17571.97 Mihaly Deak   Volente, TX01:55:59.000 182578  277 Racer-X
18576.46 Jamie Mitchell   Texas, TX01:56:01.000 286360  360 Violet Crown
19580.95 Walter Sheppard   Alvin, TX02:07:19.000 42108  324 Team Texas Pro Health Racing
20 Miguel Villareal   02:12:15.000  331 West End
21589.93 Jeff Westerheide   Dallas, TX02:21:54.000 232998  359 Dallas Bike Works
DNF Mike Robin   Houston, TXDNF 340466  263 moreinternational.com
DNF Mark Berthiaume   Austin, TXDNF 3536  309 Bicycle Sport Shop

Men - Cat 3 - 1-10

 Place Points NameCity, StateTime USAC #BibTeam
1540.00 Will Mabus   Dallas, TX00:15:18.000 428254  
2 Teddy Lakoski   00:15:28.000  23 Bully Hill/Mellow Johnny's
3545.00 Sam Sharp   Katy, TX00:15:41.000 420197  593 
4547.50 Andrew Anderson   Austin, TX00:15:50.000 423393  Bicycle Sport Shop
5 Lance Lakoski   00:15:51.000  22 Mellow Johnny's/Bully Hill
6552.50 Gabriel Payne   Austin00:15:52.000 422404  Ozone Bikes
7555.00 Sidney Armer III   Smithville, TX00:18:28.000 424409  20 787 Racing
8557.50 Reid Griffin   Sherman00:18:52.000 428951  90 Cadence Cyclery
9 Nik Black   00:18:55.000  93 Mellow Johnny's
10562.50 Matthew Hamsa   Cedar Park, TX00:21:21.000 426192  18 
11 Shane Hollansworth   00:21:39.000  14 
12567.50 Taylor Warrick   Stockdale, TX00:22:59.000 424107  628 
13570.00 Max Anderson   Stockholm00:23:46.000 367532  95 Bicycles Outback p/b Jubilee Mitsubishi
14 Alan McEwan   00:23:47.000  25 Bike Mojo
15575.00 Andrew Rojas   Cedar Park, TX00:23:48.000 423079  15 
16 Collin Otto   00:24:29.000  12 
17 Le'Ontre Earls   00:26:55.000  
18 Elijah Kerstetter   00:27:32.000  
19 Malik Earls   00:29:30.000  
20 Wyatt Barnett   00:30:00.000  91 
21 Anthony Mesa   00:31:33.000  

Men - Cat 3 - 11-12

 Place Points NameCity, StateTime USAC #BibTeam
1433.54 Will Sharp   Katy, TX00:21:46.000 385678  475 Bicycles Inc.
2442.28 Noah Given   Kerrville, TX00:22:17.000 293234  489 Hill Country Bicycle Works
3451.02 Aidan Bond   San Antonio, TX00:23:50.000 329966  478 Hill Country Bicycle Works
4459.76 Samuel Watts   Kerrville, TX00:23:56.000 381765  491 Hill Country Bicycle Works
5468.50 Luke Abell   New Braunfels, TX00:25:35.000 426237  481 Hill Country Bicycle Works
6 Jenson Kay   00:25:36.000  486 Texas Cycle Werks
7 Brandon Pemberton   00:27:06.000  488 Mafia Racing
8494.72 Chase Griffin   Sherman00:28:10.000 386389  487 Cadence Cyclery
9 Duncan McEwan   00:29:12.000  493 Bike Mojo
10 Derek Shelburne   00:30:10.000  483 Twisted X Brewery
11520.94 Adin Jose   Pflugerville, TX00:30:12.000 425398  477 ManifestoMinistry/Peddler
12529.68 Jose Ketterhagen   Georgetown, TX00:32:55.000 425409  494 787 Racing
13538.42 Jason Villanueva   Plano, TX00:34:54.000 76176  490 
14547.16 Ethan Adams   San Antonio, TX00:35:27.000 376227  484 Hostile
15555.90 Nate Lawrence   Austin, TX00:44:01.000 424408  495 
16 Dejhan Clark   00:44:48.000  482 
DNF Connor Rainey   Waco, TXDNF 366959  476 Bicycles Outback Racing

Men - Cat 3 - 13-14

 Place Points NameCity, StateTime USAC #BibTeam
1435.86 Logan Rainey   Waco, TX00:50:41.000 366961  508 Bicycles Outback/Jubilee Subaru
2444.63 Jayden Hakala   San Antonio, TX00:50:52.000 375437  613 Ride Away Bicycles
3453.40 Hayden Otto   Muenster, TX00:55:26.000 366868  584 Bicycles Plus
4462.17 Will Sharp   Katy, TX00:57:06.000 385678  612 Bicycles Inc.
5 Evan Margiotta   00:57:28.000  642 
6 Bill Lara   00:57:42.000  617 Bike Mojo
7 Ethan Bernick   00:59:33.000  623 Monkey Wrench Racing
8497.25 Brennen Turner   Selma, TX01:08:20.000 425411  631 
9 Chase Arteaga   01:41:15.000  585 
DNF Josh Morris   Allston, MADNF 416775  586 

Men - Cat 3 - 15-18

 Place Points NameCity, StateTime USAC #BibTeam
1465.02 Alfredo Figueroa   Houston, TX00:48:52.000 422569  525 Sun & Ski/Southern Elite
2 Garret Jeter   00:48:57.000  636 
3 Charley Ramsay   00:49:26.000  535 Ramsay Family
4485.84 Max Underhill   Fair Oaks Ranch, TX00:49:27.000 291057  564 Hill Country Bicycle Works
5492.78 Justin Mosier   Kerrville, TX00:49:45.000 396717  505 Hill Country Bicycle Works
6499.72 Carter Tate   Midland, TX00:51:51.000 391039  588 
7506.66 Tate Knowles   Little Elm , TX00:51:53.000 428498  571 Matrix Cycling
8513.60 Cole Weidenbach   Spicewood Tx00:52:45.000 422159  502 Lake Travis
9520.54 Nick Mohan   Crawford00:52:58.000 426280  639 Bicycles Outback/Jubilee Subaru
10527.48 Zach Spears   Magnolia, TX00:54:49.000 413271  547 
11534.42 Ryon Mays   Kerrville00:58:12.000 425920  579 Hill Country Bicycle Works
12541.36 John Ketterhagen   Georgetown00:58:54.000 402675  619 787 Racing
13548.30 Tallon Pemberton   Lakeway, TX00:58:56.000 357733  572 Mafia Racing
14555.24 Austin Love   Montgomery, TX00:59:05.000 419933  528 
15562.18 Walker Karnstadt   Austin00:59:31.000 425736  522 
16569.12 Nash Lilly   Irving, TX01:01:19.000 341232  603 Cadence Cyclery
17 Evan Gabrielsen   01:10:07.000  622 
18583.00 John Wilke   Arlington, TX01:11:46.000 426256  602 
19589.94 Ryan Mosley   Bee Cave, TX01:31:27.000 426186  561 LTMS MTB Club
DNF Clayton Cathey   KerrvilleDNF 368631  587 Hill Country Bicycle Works/Home School

Men - Cat 3 - 19-29

 Place Points NameCity, StateTime USAC #BibTeam
1540.00 Jordan Janes   Austin, TX00:47:33.000 414511  506 
2544.17 Justin Burstein   Austin, TX00:47:34.000 279706  550 
3548.34 Kenneth Nelson   San Antonio, TX00:48:13.000 374729  606 Bicycle Heaven/PVA
4 Frank Vera   00:51:17.000  540 
5 Colby Maynard   00:52:18.000  577 BCS Bicycles
6560.85 Bradley Kroll   Waco, TX00:52:57.000 422686  633 The Bear Mountain
7565.02 Evan Haas   Houston, TX00:54:40.000 172299  513 
8 Mason Starnes   00:55:38.000  575 
9573.36 Sergio Cazares   Austin, TX00:55:46.000 418383  538 Team Serik
10577.53 Steven Haug   College Station, TX00:59:06.000 416147  519 Texas A & M University
11 Alex Jaimes   00:59:12.000  646 
12585.87 Jesus Vasquez   Laredo, TX00:59:46.000 336760  568 Ciclo Mania Bicycle
13 Mickey Pereira   01:22:53.000  565 
DNS Zachary Johnson   DNS  544 
DNF Erik Warren   DNF  645 Serik

Men - Cat 3 - 30-39

 Place Points NameCity, StateTime USAC #BibTeam
1540.00 Hanson Little   Austin, TX00:44:39.000 411690  598 
2541.72 Jarrod Moore   Ofallon, IL00:46:01.000 246386  539 
3 Jonathan Packard   00:46:17.000  634 
4545.16 Ken Ervin   Austin00:46:18.000 374944  510 
5546.88 Mark Nikonowicz   Saint Charles, MO00:46:19.000 422884  553 
6548.60 Owen Callahan   Austin, TX00:47:24.000 419254  503 
7550.32 Justin Stoker   Austin, TX00:48:17.000 422422  515 512 Racing pb/AJ's
8 Wesley Aycock   00:49:40.000  621 Cowboys From Hell
9553.76 Nic Thomas   Austin, TX00:50:51.000 282135  630 
10555.48 Justin R Shelton   Austin, TX00:51:18.000 419430  509 512 Racing pb/AJ's
11557.20 Raul Henao   Houston, TX00:51:47.000 395856  566 Angry Sloth Racing/Bicycle World of Hous
12558.92 Ryan Logan   Dripping Springs, TX00:52:31.000 424704  511 
13 David Henley   00:52:51.000  534 Neilson Devo
14562.36 Mario Lopez   Cypress, TX00:53:24.000 414591  512 Urban Bicycle Gallery
15564.08 Carlos Vega   Richmond, TX00:54:57.000 422216  537 Natalee/Kyla Racing
16 Ryan Shave   00:55:07.000  637 
17567.52 Andrew Myers   Kerrville, TX00:55:15.000 365999  518 Team Twin Six
18 Juan Felipe Serna   00:55:44.000  625 
19 Craig Norton   00:59:39.000  504 
20 Brandon Taylor   01:02:14.000  641 Smokey Bailout
21574.40 Oscar Urdiales   Laredo, TX01:04:06.000 367510  595 Pedalheads Laredo
22 Brian Weaver   01:05:59.000  507 
23577.84 Chance Warrick   Stockdale01:06:41.000 422780  629 
24579.56 Ricardo Aviles   Sierra Vista, AZ01:10:13.000 223136  610 OMW Racing
25 Horus Garcia   01:12:54.000  558 Wild Cats MTB
26 Dustin Krause   01:15:23.000  545 
27 Erik Blackburn   01:19:55.000  554 
28586.44 Travis Joyce   Katy, TX01:25:56.000 424303  609 
29588.16 Jose Munoz   Laredo, TX01:28:56.000 323290  533 Ciclomania Bike Shop
30589.88 Sergio Contreras   Cincinnati, OH01:28:57.000 200245  620 Malcones Saltillo
DNS Clay Abernathy   LongviewDNS 417049  516 
DNF Miguel Ortiz   Austin TxDNF 393156  532 Bicycle Sport Shop
DNF Tony Mesa   DNF  574 

Men - Cat 3 - 40-49

 Place Points NameCity, StateTime USAC #BibTeam
1533.20 Antonio Latto   Austin, TX00:48:17.000 20478  542 Austin Nationals
2535.78 Steve Guzman   Austin, TX00:48:21.000 235059  640 787 Racing
3 Aaron Zander   00:48:39.000  531 
4540.94 Cesar Mora   Cypress, TX00:51:52.000 418952  517 Bike Barn
5543.52 John Nguyen   Austin00:52:04.000 394038  501 Mofo Racing
6546.10 Frank Hartmann   Austin, TX00:52:51.000 422177  541 
7 Digo Villareal   00:53:01.000  626 
8551.26 Mark Mosier   Kerrville, TX00:53:07.000 396692  608 Hill Country Bicycle Works
9 Britt Goodman   00:54:10.000  643 
10556.42 Brett Jones   Leander, TX00:55:50.000 365067  556 University Cyclery
11559.00 Richard Raymond   Pasadena, TX00:55:57.000 29277  583 
12561.58 Jorge Salinas   Houston, TX00:57:52.000 240496  597 Laredo Pro Bike
13564.16 Brian A Smith   Farmers Branch, TX00:58:26.000 385620  563 Sun & Ski
14566.74 Timothy Lawrence   Austin, TX00:58:27.000 304730  624 
15569.32 Mike Leonard   Beaumont, TX00:58:42.000 214377  557 Team Turtle
16 Derrick Rosser   00:59:29.000  530 
17574.48 Bill Simons   Austin Tx01:00:25.000 288290  614 ICS
18577.06 Jeff Spears   Magnolia01:01:48.000 413227  548 
19 David Juarez   01:02:07.000  596 Laredo Pro Bike
20 Charles Ramsay   01:03:22.000  536 Ramsay Family
21584.80 Jeff Haug   Devine, TX01:04:32.000 424778  520 
22 Christopher Gobert   01:17:14.000  559 Wild Cats MTB
23 Carlos Lengua   01:39:48.000  552 
DNS Richard Hoover   WoodwayDNS 423352  526 
DNF Craig Turner   Selma, TXDNF 423363  632 
DNF Darren Webber   DNF  400 

Men - Cat 3 - 50-99

 Place Points NameCity, StateTime USAC #BibTeam
1540.00 David Calvo   San Antonio, TX00:50:46.000 336804  529 A1 Alarm & Tint
2545.56 Tim Knowles   Little Elm, TX00:52:43.000 296582  570 Crest/RBM Racing
3551.12 Don Armentrout   Beaumont, TX00:52:49.000 323656  618 Bronze Body Racing Team
4556.68 John Hollansworth Jr   Lantana, TX00:52:53.000 422465  580 
5562.24 Kirk Simmons   Huntsville, TX00:54:58.000 424124  560 Centrado Energy
6567.80 Frank Rotnofsky   Laredo, TX01:00:22.000 271255  576 Level X
7573.36 Tom Turk   Bulverde, TX01:03:24.000 185911  638 
8 D. Wayne Hawk   01:05:14.000  582 
9584.48 Jose De La Rocha   Dallas, TX01:19:04.000 427768  521 Matrix/RBM
10 Jim Gleason   01:36:32.000  589 
DNS Keith Moore   DNS  543 Chicken E
DNF Kerry Emmott   DNF  607 
DNF James Gheida   DNF  549 

Women - SS Open

 Place Points NameCity, StateTime USAC #BibTeam
1510.85 Shae Vaughan   Georgetown , TX01:37:58.000 176425  76 Mafia Racing
2537.23 Steffi Penco   Hollywood Fl01:43:15.000 185913  197 
3563.61 Kristi Kees   Cedar Park, TX01:47:38.000 178323  138 Texas Cyclewerks
4589.99 Catherine Moritz   Houston, TX01:51:28.000 203939  169 Sugar Cycles/Wholesome Sweeteners
DNS Tracey Martinez   San Antonio, TXDNS 194265  143 Team Confederates

Women - Pro/Cat 1 - 0-99

 Place Points NameCity, StateTime USAC #BibTeam
1435.88 Melanie Etherton   Austin, TX01:34:04.000 271764  174 Cycle Progression
2460.10 Cindy Abbott   Austin, TX01:35:42.000 390168  149 Mac's Cycle Werks/YBS Bikes
3484.32 Sarah Ginsbach   Huntsville, TX01:36:54.000 319824  155 Bike Lane/ProGold Lubricants/WTF
4508.54 Liz Lurz   Abilene01:40:09.000 206473  186 Athletes On Track
5532.76 Lisa Uranga   Irving, TX01:48:31.000 325178  171 PACC
DNS Jessica Rawlins   Denton, TXDNS 308761  152 Bicycles Plus
DNF Jen Ragan-Marlowe   Royse City, TXDNF 143436  166 Team Rockwall Cycling

Women - Cat 1 - 15-18

 Place Points NameCity, StateTime USAC #BibTeam
1 Nadina Junuzovic   Austin Tx02:07:41.000 281770  75 787 Racing

Women - Cat 1 - 19-39

 Place Points NameCity, StateTime USAC #BibTeam
1484.76 Melissa White   Houston, TX01:37:07.000 366057  156 
2492.64 Amy Parkinson   Austin, TX01:39:35.000 364747  168 Thunderbird Energetica/Cycle Progression
3500.52 Andrea Fox   Leander, TX01:39:59.000 376028  117 The Peddler
4508.40 Porsha Stockton   Allen, TX01:43:04.000 387609  150 Cadence Cyclery
5516.28 Melainie Black   Houston01:44:19.000 40370  141 Mellow Johnny's Bike Shop
6524.16 Sara Krause   Austin, TX01:44:41.000 185228  193 Mafia Racing South
7532.04 Lisa Hartman   Houston, TX01:45:14.000 217745  159 Sugar Cycles / Wholesome Sweetener
8539.92 Sydnei Anderson   Frisco, TX01:46:24.000 385671  145 Team PACC
9547.80 Julia Jenkins   Houston, TX01:47:10.000 206021  160 Bikesport ION
10555.68 Jenna Emerick   Austin, TX01:50:40.000 360522  134 The Peddler Bike Shop
11563.56 Jodie Kay Wetuski   Willis, TX01:53:09.000 404607  158 Bicycle World of Houston
12571.44 Jillian Horn   Houston, TX02:25:21.000 289045  126 Sugar Cycles/

Women - Cat 1 - 40-49

 Place Points NameCity, StateTime USAC #BibTeam
1473.55 Kim Chance   Dallas, TX01:46:12.000 157443  165 Matrix Cycling Club/Richardson Bike Mart
2491.81 Teresa Franzke   Austin, TX01:52:17.000 388072  180 Bicycle Sport Shop
3510.07 Melissa Grubbs   Hutto, TX01:52:31.000 350048  144 Team Bicycle Sport Shop
4528.33 Margaret Nolen   Cedar Park, TX01:55:49.000 291188  179 Team Bicycle Sport Shop
5546.59 Alissa Magrum   Lakeway, TX01:56:47.000 185283  194 Colin's Hope
6564.85 Joy Billeaud   Waco Tx01:59:07.000 365178  124 Bicycles Outback Racing
7583.11 Tanya Woody   San Antonio, TX02:07:59.000 236072  182 Bike World Racing

Women - Cat 1 - 50-99

 Place Points NameCity, StateTime USAC #BibTeam
1540.00 Tammy Killebrew   Austin, TX01:49:34.000 88101  189 Hill Country Bicycle Works
2565.00 Lisa Nye-Salladin   Kerrville, TX01:50:29.000 26368  128 Hill Country Bicycle Works
3590.00 Rosario Zuniga   Cd. Victoria Mex02:15:30.000 423069  164 

Women - Cat 2 - 15-18

 Place Points NameCity, StateTime USAC #BibTeam
1 Jessica Tudor   Wylie, TX02:25:47.000 421187  604 RBM/Matrix

Women - Cat 2 - 19-29

 Place Points NameCity, StateTime USAC #BibTeam
1538.69 Megan Emerick   The Woodlands, TX01:47:13.000 346620  298 The Peddler Bike Shop
2546.02 Rachel Cook   Denton, TX01:50:40.000 361282  291 Terra Firma
3553.35 Brittany Parffrey   Katy, TX01:57:07.000 377033  334 Bike Barn
4560.68 Sheree Benavides   Dallas, TX02:01:46.000 411314  272 RBM/Matrix
5568.01 Lauren Griffith   Austin, TX02:02:28.000 414751  344 Squadra Di Servatori
6575.34 Christina Ricketts   Waco, TX02:14:03.000 423876  328 Bicycles Outback Racing
7582.67 Vicky Pabon   Houston, TX02:30:43.000 260836  367 Sugar Cycles / Wholesome Sweeteners
8590.00 Larissa Tater   Austin, TX02:39:00.000 421212  249 Team Chain Drop
DNF Kailey Elkins   Smithville, TXDNF 321474  347 Bicycle Sport Shop Mountain Bike Team
DNF Laura Gonzalez   San Marcos, TXDNF 422739  238 

Women - Cat 2 - 30-39

 Place Points NameCity, StateTime USAC #BibTeam
1540.00 Katy Cornelius   Seabrook, TX01:54:47.000 366172  322 Texas Pro Health Racing
2565.00 Anh Pham   Houston, TX02:13:24.000 396432  389 Angry Sloth Racing
3590.00 Darlene Streeter   Austin, TX02:36:15.000 337426  338 Crank House Cycles
DNS Jane Schwartzkopf   Flower MoundDNS 395192  289 Bicycles Plus

Women - Cat 2 - 40-99

 Place Points NameCity, StateTime USAC #BibTeam
1540.00 Becky Gernand   Austin, TX01:58:26.000 422865  366 Team Wrecky
2556.67 Candy Mann   Kemah, TX02:01:03.000 341940  274 Team Texas Pro Health Racing
3573.34 Carlie Spence   Austin, TX02:10:16.000 315548  369 Mafia Racing
4590.01 Susan Pollard   Magnolia, TX02:21:28.000 368765  385 Bikelane

Women - Cat 3 - 1-10

 Place Points NameCity, StateTime USAC #BibTeam
1540.00 Mackenzie Anderson   Robinson, TX00:15:47.000 424410  19 Bicycles Outback Racing
2545.00 Gabriela Watts   Kerrville, TX00:16:50.000 428758  21 Hill Country Bicycle Works
3 Karsyn Pemberton   00:18:24.000  17 
4 Ellie Black   00:19:38.000  94 Mellow Johnny's
5560.00 Emily Moyers   Spring, TX00:19:55.000 420224  Southern Elite/Sun&Ski
6 Ella Waldrip   00:21:33.000  11 Hill Country Bike Works
7570.00 Claire Lawrence   Austin, TX00:22:38.000 424407  92 
8575.00 Teresa Rojas   Cedar Park, TX00:23:23.000 423032  16 
9 Brooke Waldrip   00:23:24.000  10 
10585.00 Kari Tate   Midland, TX00:25:51.000 392170  13 
11 Josie Poole   00:28:08.000  24 
DNF Alexia Latto   DNF  Austin Nationals

Women - Cat 3 - 11-12

 Place Points NameCity, StateTime USAC #BibTeam
1524.60 Emmaline Baxter-Harwell   Austin00:25:47.000 396592  480 Southern Elite/Sun & Ski Sports/PARD
2541.95 Abigail Yates   Rowlett, TX00:26:04.000 386370  479 Matrix/RBM
3 Bayley Otto   00:35:23.000  496 TACO CASA/Bicycles Plus
4 Samantha Lakoski   00:35:24.000  492 Mellow Johnny's/Bully Hill

Women - Cat 3 - 13-14

 Place Points NameCity, StateTime USAC #BibTeam
1 Abigail Yates   Rowlett, TX01:22:32.000 386370  601 Matrix/RBM

Women - Cat 3 - 15-18

 Place Points NameCity, StateTime USAC #BibTeam
1540.00 Cammie Robbiano   San Antonio, TX01:03:01.000 347478  615 Bike World Racing/Lopez Middle School
2 Kelly McCabe   01:10:15.000  616 
3590.00 Logan Patterson   Spring01:21:12.000 425818  514 Southern Elite/Sun & Ski Sports

Women - Cat 3 - 19-29

 Place Points NameCity, StateTime USAC #BibTeam
1 Paige Carver   01:10:51.000  600 Bike Barn
2 Kendra Lucas   01:26:16.000  605 
3 Ashley Anders   01:32:02.000  594 West End Bicycles

Women - Cat 3 - 30-39

 Place Points NameCity, StateTime USAC #BibTeam
1540.00 Stephanie Cole   Houston , TX00:54:05.000 418981  524 
2547.14 Eve Pearson   Fort Worth, TX00:59:18.000 428797  627 Nutriworks
3 Geovanna Velasquez   01:08:08.000  523 austin Ridge Rider
4 Kendra Boggs   01:09:54.000  644 
5568.56 Hillary Hayden   Houston, TX01:11:36.000 424164  562 Sugar Cycles/Wholesome Sweetners
6575.70 Renada Snodgrass   Austin, TX01:15:40.000 419262  546 
7582.84 Stacey Stromberg   Austin, TX01:17:52.000 422192  551 
8 Jessica Mesa   01:34:07.000  573 

Women - Cat 3 - 40-99

 Place Points NameCity, StateTime USAC #BibTeam
1540.00 April Vanderbilt   Jonestown, TX00:58:38.000 378960  555 Big Pistachio
2546.25 Kelly Kay   Los Angeles, CA00:59:12.000 181275  592 Texas Cycle Werks
3552.50 Elisa Rainey   Waco Texas01:05:46.000 399674  581 Bicycles Outback
4 Debi Schoenfelt   01:06:52.000  591 
5 Jodie Eldridge   01:08:26.000  635 Bicycle Sport Shop
6 Amy Miller   01:09:09.000  611 Shiner
7577.50 Jennifer Jeter   Dallas, TX01:11:48.000 428564  590 Fast Frog Racing
8 Kurstin Kennedy   01:12:50.000  567 
9590.00 Mayrand Mary   Austin01:12:55.000 428371  599 Peddle Bike Shop
DNS Kelly Grant   HoustonDNS 365816  569 Northwest Cycles
DNS Christine Hoover   WoodwayDNS 423432  527 

Report missing or incorrect license numbers

Volkswagen
ShimanoSierra NevadaBonk BreakerUSACDFSpyOSMOCUORE
UCI USA Cycling is the official governing body for all disciplines of competitive cycling in the United States. The 501c3, membership-based organization aims both to achieve sustained success in international cycling competition and to grow competitive cycling in America while delivering an exceptional customer experience.
View Children's Online Privacy Protection Policy
US Olympic Committee